When you browse on this site, cookies collect data to enhance your experience and personalize the content and advertising you see.
Visit our Privacy Policy to learn more. By continuing to use the site, you agree to this use of cookies and data.
  • En España
  • Lista de países
  • Para 7 días
  • Temperatura del agua
  • El tiempo en el mapa
  • Informadores
  • user-avatar
    Iniciar sesión

    Tiempo cada hora Kitzbuel

    Hoy, 28 Marzo, Sábado

    Tiempo Temperatura Precipitaciones Viento Presión Humedad
    00:00 +2°C° 0 mm 2 mps 675 mmHg 85%
    01:00 +1°C° 0 mm 3 mps 675 mmHg 85%
    02:00 0°C° 0 mm 3 mps 675 mmHg 85%
    03:00 +1°C° 0 mm 2 mps 675 mmHg 85%
    04:00 +1°C° 0 mm 2 mps 674 mmHg 85%
    05:00 +1°C° 0 mm 2 mps 675 mmHg 83%
    06:00 +3°C° 0 mm 1 mps 675 mmHg 81%
    07:00 +4°C° 0 mm 1 mps 675 mmHg 78%
    08:00 +6°C° 0 mm 1 mps 675 mmHg 75%
    09:00 +8°C° 0 mm 1 mps 675 mmHg 71%
    10:00 +10°C° 0 mm 1 mps 676 mmHg 68%
    11:00 +10°C° 0 mm 1 mps 675 mmHg 69%
    12:00 +10°C° 0 mm 1 mps 675 mmHg 70%
    13:00 +11°C° 0 mm 1 mps 675 mmHg 69%
    14:00 +11°C° 0.1 mm 1 mps 674 mmHg 70%
    15:00 +11°C° 0.1 mm 1 mps 674 mmHg 72%
    16:00 +11°C° 0.1 mm 1 mps 674 mmHg 74%
    17:00 +9°C° 0.2 mm 1 mps 674 mmHg 81%
    18:00 +7°C° 0.2 mm 1 mps 674 mmHg 88%
    19:00 +5°C° 0.2 mm 1 mps 674 mmHg 95%
    20:00 +4°C° 0.1 mm 0 mps 674 mmHg 95%
    21:00 +4°C° 0.1 mm 0 mps 674 mmHg 95%
    22:00 +3°C° 0.1 mm 0 mps 675 mmHg 95%
    23:00 +3°C° 0 mm 0 mps 675 mmHg 94%

    Mañana, 29 Marzo, Domingo

    Tiempo Temperatura Precipitaciones Viento Presión Humedad
    00:00 +4°C° 0 mm 1 mps 675 mmHg 94%
    01:00 +4°C° 0 mm 1 mps 675 mmHg 94%
    02:00 +4°C° 0 mm 1 mps 674 mmHg 94%
    03:00 +4°C° 0 mm 1 mps 674 mmHg 94%
    04:00 +4°C° 0 mm 1 mps 674 mmHg 94%
    05:00 +4°C° 0 mm 1 mps 674 mmHg 94%
    06:00 +3°C° 0 mm 0 mps 674 mmHg 94%
    07:00 +3°C° 0 mm 0 mps 674 mmHg 93%
    08:00 +5°C° 0.3 mm 1 mps 674 mmHg 93%
    09:00 +5°C° 0.3 mm 1 mps 674 mmHg 93%
    10:00 +5°C° 0.3 mm 1 mps 674 mmHg 93%
    11:00 +5°C° 0.4 mm 1 mps 674 mmHg 93%
    12:00 +5°C° 0.4 mm 1 mps 674 mmHg 94%
    13:00 +5°C° 0.4 mm 1 mps 673 mmHg 95%
    14:00 +4°C° 0.4 mm 1 mps 673 mmHg 95%
    15:00 +4°C° 0.4 mm 1 mps 673 mmHg 96%
    16:00 +4°C° 0.4 mm 1 mps 673 mmHg 96%
    17:00 +4°C° 0.7 mm 1 mps 673 mmHg 97%
    18:00 +3°C° 0.7 mm 1 mps 673 mmHg 97%
    19:00 +2°C° 0.7 mm 2 mps 674 mmHg 98%
    20:00 +1°C° 0.9 mm 2 mps 674 mmHg 98%
    21:00 +1°C° 0.9 mm 2 mps 674 mmHg 98%
    22:00 -1°C° 0.9 mm 2 mps 674 mmHg 98%
    23:00 -1°C° 0.9 mm 2 mps 675 mmHg 98%

    Pasado mañana, 30 Marzo, Lunes

    Tiempo Temperatura Precipitaciones Viento Presión Humedad
    00:00 -1°C° 0.9 mm 2 mps 675 mmHg 98%
    01:00 -2°C° 0.9 mm 2 mps 675 mmHg 98%
    02:00 -2°C° 0.9 mm 2 mps 675 mmHg 98%
    03:00 -2°C° 0.9 mm 2 mps 675 mmHg 98%
    04:00 -2°C° 0.9 mm 2 mps 675 mmHg 98%
    05:00 -3°C° 0.6 mm 2 mps 675 mmHg 97%
    06:00 -3°C° 0.6 mm 2 mps 675 mmHg 97%
    07:00 -4°C° 0.6 mm 2 mps 675 mmHg 96%
    08:00 -3°C° 0.5 mm 2 mps 675 mmHg 95%
    09:00 -3°C° 0.5 mm 2 mps 676 mmHg 95%
    10:00 -3°C° 0.5 mm 2 mps 676 mmHg 94%
    11:00 -3°C° 0.4 mm 2 mps 676 mmHg 93%
    12:00 -3°C° 0.4 mm 2 mps 675 mmHg 93%
    13:00 -2°C° 0.4 mm 2 mps 675 mmHg 93%
    14:00 -3°C° 0.5 mm 2 mps 675 mmHg 93%
    15:00 -3°C° 0.5 mm 2 mps 675 mmHg 93%
    16:00 -3°C° 0.5 mm 2 mps 675 mmHg 93%
    17:00 -4°C° 0.4 mm 2 mps 675 mmHg 94%
    18:00 -4°C° 0.4 mm 2 mps 675 mmHg 95%
    19:00 -3°C° 0.4 mm 1 mps 676 mmHg 96%
    20:00 -3°C° 0.3 mm 1 mps 676 mmHg 96%
    21:00 -4°C° 0.3 mm 1 mps 676 mmHg 96%
    22:00 -4°C° 0.3 mm 1 mps 677 mmHg 95%
    23:00 -6°C° 0.2 mm 1 mps 677 mmHg 95%

    31 Marzo, Martes

    Tiempo Temperatura Precipitaciones Viento Presión Humedad
    00:00 -6°C° 0.2 mm 1 mps 677 mmHg 95%
    01:00 -7°C° 0.2 mm 0 mps 677 mmHg 95%
    02:00 -8°C° 0.1 mm 0 mps 676 mmHg 95%
    03:00 -9°C° 0.1 mm 0 mps 676 mmHg 95%
    04:00 -10°C° 0.1 mm 0 mps 676 mmHg 95%
    05:00 -9°C° 0 mm 0 mps 676 mmHg 94%
    06:00 -9°C° 0 mm 1 mps 676 mmHg 93%
    07:00 -9°C° 0 mm 1 mps 677 mmHg 92%
    08:00 -7°C° 0 mm 1 mps 677 mmHg 87%
    09:00 -3°C° 0 mm 1 mps 677 mmHg 82%
    10:00 -1°C° 0 mm 1 mps 677 mmHg 77%
    11:00 -1°C° 0 mm 1 mps 677 mmHg 77%
    12:00 -2°C° 0 mm 2 mps 677 mmHg 77%
    13:00 -2°C° 0 mm 2 mps 677 mmHg 76%
    14:00 -2°C° 0.1 mm 2 mps 677 mmHg 78%
    15:00 -2°C° 0.1 mm 2 mps 677 mmHg 80%
    16:00 -2°C° 0.1 mm 2 mps 677 mmHg 81%
    17:00 -2°C° 0.1 mm 1 mps 677 mmHg 85%
    18:00 -4°C° 0.1 mm 1 mps 676 mmHg 89%
    19:00 -7°C° 0.1 mm 0 mps 676 mmHg 94%
    20:00 -7°C° 0 mm 1 mps 677 mmHg 93%
    21:00 -8°C° 0 mm 1 mps 677 mmHg 93%
    22:00 -8°C° 0 mm 1 mps 678 mmHg 93%
    23:00 -9°C° 0 mm 1 mps 678 mmHg 91%

    1 Abril, Miércoles

    Tiempo Temperatura Precipitaciones Viento Presión Humedad
    00:00 -9°C° 0 mm 1 mps 677 mmHg 89%
    01:00 -10°C° 0 mm 2 mps 677 mmHg 86%
    02:00 -12°C° 0 mm 2 mps 677 mmHg 84%
    03:00 -12°C° 0 mm 2 mps 677 mmHg 82%
    04:00 -12°C° 0 mm 2 mps 676 mmHg 80%
    05:00 -10°C° 0 mm 2 mps 676 mmHg 78%
    06:00 -9°C° 0 mm 2 mps 676 mmHg 76%
    07:00 -7°C° 0 mm 1 mps 676 mmHg 74%
    08:00 -3°C° 0 mm 1 mps 677 mmHg 71%
    09:00 0°C° 0 mm 1 mps 677 mmHg 68%
    10:00 +2°C° 0 mm 0 mps 677 mmHg 65%
    11:00 +4°C° 0 mm 1 mps 677 mmHg 68%
    12:00 +5°C° 0 mm 1 mps 676 mmHg 71%
    13:00 +5°C° 0 mm 1 mps 676 mmHg 73%
    14:00 +5°C° 0 mm 1 mps 676 mmHg 76%
    15:00 +5°C° 0 mm 1 mps 675 mmHg 78%
    16:00 +5°C° 0 mm 1 mps 675 mmHg 80%
    17:00 +2°C° 0 mm 0 mps 674 mmHg 85%
    18:00 0°C° 0 mm 0 mps 674 mmHg 89%
    19:00 -2°C° 0 mm 0 mps 674 mmHg 94%
    20:00 -2°C° 0 mm 0 mps 674 mmHg 93%
    21:00 -2°C° 0 mm 1 mps 674 mmHg 92%
    22:00 -2°C° 0 mm 1 mps 674 mmHg 91%
    23:00 -2°C° 0 mm 1 mps 674 mmHg 90%

    2 Abril, Jueves

    Tiempo Temperatura Precipitaciones Viento Presión Humedad
    00:00 -3°C° 0 mm 1 mps 674 mmHg 89%
    01:00 -3°C° 0 mm 1 mps 674 mmHg 88%
    02:00 -3°C° 0 mm 1 mps 674 mmHg 87%
    03:00 -3°C° 0 mm 1 mps 673 mmHg 87%
    04:00 -3°C° 0 mm 1 mps 673 mmHg 86%
    05:00 -3°C° 0 mm 1 mps 673 mmHg 84%
    06:00 -2°C° 0 mm 1 mps 673 mmHg 83%
    07:00 -2°C° 0 mm 0 mps 673 mmHg 82%
    08:00 +1°C° 0 mm 1 mps 673 mmHg 82%
    09:00 +3°C° 0 mm 1 mps 673 mmHg 81%
    10:00 +5°C° 0 mm 1 mps 674 mmHg 81%
    11:00 +6°C° 0 mm 1 mps 673 mmHg 81%
    12:00 +6°C° 0 mm 1 mps 673 mmHg 81%
    13:00 +7°C° 0 mm 1 mps 673 mmHg 81%
    14:00 +6°C° 0 mm 1 mps 673 mmHg 83%
    15:00 +6°C° 0 mm 1 mps 672 mmHg 85%
    16:00 +5°C° 0 mm 1 mps 672 mmHg 87%
    17:00 +4°C° 0 mm 1 mps 672 mmHg 89%
    18:00 +3°C° 0 mm 1 mps 672 mmHg 91%
    19:00 +1°C° 0 mm 0 mps 672 mmHg 93%
    20:00 +1°C° 0 mm 0 mps 673 mmHg 93%
    21:00 +1°C° 0 mm 0 mps 673 mmHg 93%
    22:00 0°C° 0 mm 0 mps 674 mmHg 93%
    23:00 0°C° 0 mm 0 mps 674 mmHg 93%
    Mostrar más